User: anonymous   Login
Location: Grossmotten
(48.5500°N, 15.3833°E)
Time: 09:40:58
(UTC+00:00)
Language:

Cosmos 1535 Rocket - Orbit

View from above orbital plane
View from above orbital plane
View from above satellite
View from above satellite

Ground track
Ground track

The orbit data is extracted from the following two-line orbital elements,

1 14680U 84010B   20026.17007066 -.00000030  00000-0 -45201-4 0  9990
2 14680  82.9546  54.7406 0036416 269.3699 154.7524 13.76512249807187
Epoch (UTC): 26 January 2020 04:04:54
Eccentricity: 0.0036416
inclination: 82.9546°
perigee height: 949 km
apogee height: 1003 km
right ascension of ascending node: 54.7406°
argument of perigee: 269.3699°
revolutions per day: 13.76512249
mean anomaly at epoch: 154.7524°
orbit number at epoch: 80718

The dashed part of the orbit path shows where the satellite is in the earth's shadow,  

DLR